Kenai, AK

7:09 PM AKST on February 23, 2017 (GMT -0900)
Kenai Municipal

Weather History for PAEN - April, 2014

Change the Weather History Date:

Wednesday, April 23, 2014

  Actual Average Record
Temperature  
Mean Temperature 40 °F -  
Max Temperature 46 °F 46 °F 61 °F (2007)
Min Temperature 34 °F 27 °F 15 °F (1954)
Degree Days  
Heating Degree Days 25    
Moisture  
Dew Point 33 °F    
Average Humidity 79    
Maximum Humidity 96    
Minimum Humidity 56    
Precipitation  
Precipitation 0.00 in - - ()
Sea Level Pressure  
Sea Level Pressure 29.73 in    
Wind  
Wind Speed 9 mph (SSW)    
Max Wind Speed 14 mph    
Max Gust Speed -    
Visibility 10 miles    
Events      
Averages and records for this station are not official NWS values.
T = Trace of Precipitation, MM = Missing Value Source: NWS Daily Summary

Daily Weather History Graph

Daily Weather History Graph

Search for Another Location

Airport or City:

Trip Planner

Search our weather history database for the weather conditions in past years. The results will help you decide how hot, cold, wet, or windy it might be!

Date:

Astronomy

Apr. 23, 2014 Rise Set
Actual Time 6:22 AM AKDT 9:46 PM AKDT
Civil Twilight 5:31 AM AKDT 10:37 PM AKDT
Nautical Twilight 4:18 AM AKDT 11:51 PM AKDT
Astronomical Twilight 2:35 AM AKDT 1:30 AM AKDT
Moon 4:35 AM AKDT (4/23) 2:36 PM AKDT (4/23)
Length of Visible Light 17h 05m
Length of Day
15h 24m
Waning Crescent, 33% of the Moon is Illuminated
Apr 23
Waning Crescent
Apr 28
New
May 6
First Quarter
May 14
Full
May 21
Last Quarter

Hourly Weather History & Observations

Time (AKDT) Temp. Windchill Dew Point Humidity Pressure Visibility Wind Dir Wind Speed Gust Speed Precip Events Conditions
12:53 AM 37.0 °F 28.9 °F 34.0 °F 89% 29.75 in 10.0 mi SSW 12.7 mph - N/A   Partly Cloudy
1:53 AM 37.0 °F 28.5 °F 35.1 °F 93% 29.75 in 10.0 mi SSW 13.8 mph - N/A   Clear
2:53 AM 36.0 °F 29.6 °F 34.0 °F 93% 29.74 in 10.0 mi South 8.1 mph - N/A   Partly Cloudy
3:53 AM 35.1 °F 31.0 °F 34.0 °F 96% 29.74 in 10.0 mi SSE 4.6 mph - N/A   Mostly Cloudy
4:53 AM 36.0 °F 31.1 °F 34.0 °F 93% 29.73 in 10.0 mi South 5.8 mph - N/A   Mostly Cloudy
5:53 AM 35.1 °F 31.0 °F 33.1 °F 92% 29.73 in 10.0 mi SSE 4.6 mph - N/A   Overcast
6:53 AM 34.0 °F 28.8 °F 33.1 °F 96% 29.72 in 10.0 mi SE 5.8 mph - N/A   Overcast
7:53 AM 35.1 °F 28.6 °F 33.1 °F 92% 29.73 in 10.0 mi SSE 8.1 mph - N/A   Overcast
8:53 AM 37.9 °F 32.7 °F 35.1 °F 89% 29.73 in 10.0 mi South 6.9 mph - N/A   Mostly Cloudy
9:53 AM 39.9 °F 32.9 °F 36.0 °F 86% 29.73 in 10.0 mi South 11.5 mph - N/A   Clear
10:53 AM 41.0 °F 34.7 °F 35.1 °F 79% 29.74 in 10.0 mi South 10.4 mph - N/A   Clear
11:53 AM 42.1 °F 36.6 °F 35.1 °F 76% 29.74 in 10.0 mi WSW 9.2 mph - N/A   Clear
12:53 PM 44.1 °F 38.6 °F 33.1 °F 65% 29.74 in 10.0 mi SW 10.4 mph - N/A   Scattered Clouds
1:53 PM 45.0 °F 39.3 °F 34.0 °F 65% 29.74 in 10.0 mi SW 11.5 mph - N/A   Scattered Clouds
2:53 PM 45.0 °F 40.6 °F 32.0 °F 60% 29.73 in 10.0 mi WSW 8.1 mph - N/A   Partly Cloudy
3:53 PM 46.0 °F 41.0 °F 32.0 °F 58% 29.73 in 10.0 mi WSW 10.4 mph - N/A   Clear
4:53 PM 45.0 °F 39.7 °F 30.0 °F 56% 29.72 in 10.0 mi WSW 10.4 mph - N/A   Clear
5:53 PM 43.0 °F 38.2 °F 30.9 °F 62% 29.73 in 10.0 mi SSW 8.1 mph - N/A   Overcast
6:53 PM 43.0 °F 39.5 °F 30.0 °F 60% 29.72 in 10.0 mi SW 5.8 mph - N/A   Overcast
7:53 PM 41.0 °F 37.1 °F 30.0 °F 65% 29.71 in 10.0 mi SSW 5.8 mph - N/A   Overcast
8:53 PM 39.9 °F 34.5 °F 30.9 °F 70% 29.72 in 10.0 mi South 8.1 mph - N/A   Scattered Clouds
9:53 PM 37.9 °F 33.5 °F 33.1 °F 83% 29.72 in 10.0 mi South 5.8 mph - N/A   Overcast
10:53 PM 36.0 °F 30.3 °F 32.0 °F 86% 29.72 in 10.0 mi South 6.9 mph - N/A   Clear
11:53 PM 36.0 °F 30.3 °F 32.0 °F 86% 29.72 in 10.0 mi South 6.9 mph - N/A   Clear